GWRLD FHSH-SBSV

Flight info

Callsign GWRLD
Flight time N/A
Altitude 38000
Route ETAXO DCT 152054S0150709W 144934S0201533W/N0458F400 140654S0251223W 131505S0300912W 123855S0332837W 121223S0360130W DCT AKPAS
Aircraft CL60/M-SBDE1E2E3FGHIJ1J4J5J7M3RWXYZ/LB1V1D1

Departure

Time N/A
Airport Saint Helena International Airport (FHSH)

Arrival

Time 2026-05-04 21:00
Airport Deputado Luiz Eduardo Magalhães International Airport (SBSV)
Time Latitude Longitude Altitude Speed Heading
2026-05-04 20:48 -12.73461 -38.12915 12241 ft 347 kts 217°
2026-05-04 20:48 -12.75330 -38.14469 11768 ft 344 kts 217°
2026-05-04 20:48 -12.77200 -38.16025 11300 ft 341 kts 217°
2026-05-04 20:49 -12.79041 -38.17556 10805 ft 339 kts 217°
2026-05-04 20:49 -12.80876 -38.19084 10337 ft 336 kts 217°
2026-05-04 20:49 -12.82612 -38.20652 9870 ft 335 kts 227°
2026-05-04 20:49 -12.83767 -38.22727 9388 ft 335 kts 248°
2026-05-04 20:50 -12.84351 -38.25018 8929 ft 333 kts 259°
2026-05-04 20:50 -12.84506 -38.27380 8469 ft 332 kts 270°
2026-05-04 20:50 -12.84228 -38.29720 8009 ft 330 kts 281°
2026-05-04 20:50 -12.83667 -38.31961 7464 ft 316 kts 284°
2026-05-04 20:51 -12.83116 -38.34057 7129 ft 297 kts 284°
2026-05-04 20:51 -12.82595 -38.36044 7054 ft 282 kts 283°
2026-05-04 20:51 -12.82108 -38.37989 7037 ft 285 kts 279°
2026-05-04 20:51 -12.82133 -38.40006 6733 ft 282 kts 257°
2026-05-04 20:52 -12.82537 -38.41959 6389 ft 278 kts 255°
2026-05-04 20:52 -12.82929 -38.43878 5997 ft 277 kts 256°
2026-05-04 20:52 -12.83323 -38.45820 5644 ft 273 kts 255°
2026-05-04 20:52 -12.83710 -38.47730 5281 ft 270 kts 255°
2026-05-04 20:53 -12.84273 -38.49387 4870 ft 259 kts 236°
2026-05-04 20:53 -12.85424 -38.50697 4481 ft 242 kts 211°
2026-05-04 20:53 -12.86895 -38.51402 4079 ft 230 kts 190°
2026-05-04 20:53 -12.88473 -38.51534 3609 ft 220 kts 172°
2026-05-04 20:54 -12.89901 -38.51275 3397 ft 195 kts 166°
2026-05-04 20:54 -12.91184 -38.51025 3262 ft 176 kts 170°
2026-05-04 20:54 -12.92432 -38.51181 3228 ft 179 kts 188°
2026-05-04 20:54 -12.93664 -38.51144 3124 ft 176 kts 154°
2026-05-04 20:55 -12.94334 -38.50206 3129 ft 184 kts 98°
2026-05-04 20:55 -12.94017 -38.48916 2868 ft 181 kts 73°
2026-05-04 20:55 -12.93788 -38.47718 2683 ft 164 kts 90°
2026-05-04 20:55 -12.93685 -38.46580 2462 ft 157 kts 86°
2026-05-04 20:56 -12.93496 -38.45462 2265 ft 159 kts 84°
2026-05-04 20:56 -12.93280 -38.44347 2068 ft 160 kts 83°
2026-05-04 20:56 -12.93057 -38.43229 1869 ft 160 kts 83°
2026-05-04 20:56 -12.92840 -38.42159 1686 ft 142 kts 84°
2026-05-04 20:57 -12.92648 -38.41229 1524 ft 124 kts 84°
2026-05-04 20:57 -12.92481 -38.40398 1373 ft 117 kts 85°
2026-05-04 20:57 -12.92322 -38.39568 1196 ft 116 kts 85°
2026-05-04 20:57 -12.92162 -38.38759 1059 ft 116 kts 85°
2026-05-04 20:58 -12.92004 -38.37944 898 ft 116 kts 85°
2026-05-04 20:58 -12.91839 -38.37131 771 ft 117 kts 83°
2026-05-04 20:58 -12.91664 -38.36307 618 ft 117 kts 83°
2026-05-04 20:58 -12.91503 -38.35481 445 ft 117 kts 84°
2026-05-04 20:59 -12.91344 -38.34668 309 ft 117 kts 84°
2026-05-04 20:59 -12.91180 -38.33847 163 ft 118 kts 84°
2026-05-04 20:59 -12.91017 -38.33036 45 ft 110 kts 83°
2026-05-04 20:59 -12.90880 -38.32352 44 ft 79 kts 71°
2026-05-04 21:00 -12.90812 -38.31997 50 ft 3 kts 76°
2026-05-04 21:00 -12.90803 -38.31963 50 ft 27 kts 74°
2026-05-04 21:00 -12.90732 -38.31622 56 ft 66 kts 78°
2026-05-04 21:00 -12.90672 -38.31384 58 ft 0 kts 79°
2026-05-04 21:01 -12.90666 -38.31303 58 ft 23 kts 82°
2026-05-04 21:01 -12.90622 -38.31078 58 ft 34 kts 79°
2026-05-04 21:01 -12.90600 -38.30932 57 ft 15 kts 104°
2026-05-04 21:01 -12.90611 -38.30912 57 ft 1 kts 142°
2026-05-04 21:02 -12.90682 -38.30903 57 ft 18 kts 165°
2026-05-04 21:02 -12.90760 -38.30968 57 ft 17 kts 262°
2026-05-04 21:02 -12.90789 -38.31114 58 ft 29 kts 258°
2026-05-04 21:02 -12.90833 -38.31336 58 ft 33 kts 258°
2026-05-04 21:03 -12.90882 -38.31578 55 ft 34 kts 257°
2026-05-04 21:03 -12.90932 -38.31826 52 ft 37 kts 259°
2026-05-04 21:03 -12.90973 -38.32029 48 ft 35 kts 258°
2026-05-04 21:03 -12.91026 -38.32297 44 ft 39 kts 257°
2026-05-04 21:04 -12.91065 -38.32487 41 ft 14 kts 257°
2026-05-04 21:04 -12.91128 -38.32531 41 ft 10 kts 199°
2026-05-04 21:04 -12.91196 -38.32542 41 ft 8 kts 170°
2026-05-04 21:04 -12.91221 -38.32538 41 ft 1 kts 169°
2026-05-04 21:05 -12.91224 -38.32537 41 ft 0 kts 169°